Location: Leeds
(37.2390°N, 113.3580°W)
Time: 05:03:06
(UTC-06:00)

SL-08 RB Rocket - Visible Passes

Search period start: 26 May 2017 00:00
Search period end: 05 June 2017 00:00
Orbit: 647 x 686 km, 98.0° (Epoch: 25 May)

Date Brightness Start Highest point End Pass type
(mag) Time Alt. Az. Time Alt. Az. Time Alt. Az.
26 May 5.4 21:50:33 13° E 21:52:42 18° ENE 21:55:41 10° NNE visible
26 May 4.6 23:28:41 36° WSW 23:29:25 38° W 23:33:36 10° NNW visible
27 May 4.4 22:22:30 28° ESE 22:24:05 37° ENE 22:28:12 10° N visible
28 May 5.8 00:00:38 17° WSW 00:01:14 17° W 00:04:12 10° NW visible
28 May 3.5 22:54:27 50° SSE 22:55:37 86° ENE 23:00:06 10° NNW visible
29 May 5.5 21:48:16 12° E 21:50:35 17° ENE 21:53:28 10° NNE visible
29 May 4.6 23:26:23 36° SW 23:27:16 40° W 23:31:31 10° NNW visible
30 May 4.5 22:20:13 26° ESE 22:21:58 36° ENE 22:26:03 10° N visible
30 May 5.7 23:58:20 18° WSW 23:59:06 18° W 00:02:11 10° NW visible
31 May 3.5 22:52:09 46° SSE 22:53:29 82° ENE 22:57:59 10° N visible
01 Jun 5.5 21:45:59 11° ESE 21:48:29 16° ENE 21:51:14 10° NNE visible
01 Jun 4.5 23:24:06 36° SW 23:25:08 42° W 23:29:25 10° NNW visible
02 Jun 4.5 22:17:56 24° ESE 22:19:51 34° ENE 22:23:54 10° N visible
02 Jun 5.6 23:56:03 18° WSW 23:56:57 19° W 00:00:10 10° NW visible
03 Jun 3.6 22:49:53 42° SSE 22:51:21 78° ENE 22:55:51 10° N visible
04 Jun 5.6 21:43:45 10° ESE 21:46:23 16° ENE 21:49:01 10° NNE visible
04 Jun 4.4 23:21:50 36° SW 23:23:00 45° W 23:27:19 10° NNW visible
